Terminal Aerodrome Forecast
Issued by NWS Milwaukee/Sullivan, WI

Home | Current Version | Previous Version | Text Only | Print | Product List | Glossary On
Versions: 1 2 3 4 5 6 7 8 9 10 11 12 13 14 15 16 17 18 19 20 21 22 23 24 25 26 27 28 29 30
000
FTUS43 KMKX 250103 AAA
TAFMSN
TAF AMD
KMSN 250103Z 2501/2524 19003KT P6SM SCT030 OVC035
     FM250200 21005KT P6SM BKN025
      TEMPO 2502/2503 SCT025 OVC035
     FM250400 24004KT 5SM BR BKN025
     FM250800 27004KT 6SM BR SCT025
     FM251100 30006KT P6SM FEW250
     FM251700 30012G20KT P6SM SKC
     FM252300 29009KT P6SM SKC=

USA.gov is the U.S. government's official web portal to all federal, state and local government web resources and services.